Location: Clearlake Park
(38.9666°N, 122.6511°W)
Time: 14:24:06
(UTC+00:00)

Daily predictions for brighter satellites

Satellite Brightness Start Highest point End
(mag) Time Altitude Azimuth Time Altitude Azimuth Time Altitude Azimuth
ATLAS 5 CENTAUR R/B 4.3 12:24:23 21° NNE 12:24:23 21° NNE 12:25:29 10° NNE
Cosmos 2263 Rocket 2.7 12:29:12 27° S 12:32:13 59° ESE 12:37:49 10° NNE
CENTAUR R/B 3.8 12:27:26 24° NNW 12:32:27 52° NE 12:41:01 10° SE
Cosmos 1386 Rocket 4.5 12:27:40 10° S 12:34:04 86° E 12:40:29 10° N
ATLAS 2AS CENTAUR R/B 4.0 12:27:04 10° S 12:34:29 46° ESE 12:41:56 10° NE
SL-4 R/B 4.4 12:37:42 15° NE 12:37:42 15° NE 12:38:28 10° NE
Delta 2 Rocket 4.4 12:42:32 46° SSE 12:42:32 46° SSE 12:46:10 10° ESE
Meteor 1-31 Rocket 4.5 12:39:59 10° NNE 12:45:38 24° SSE 12:47:20 10° S
Cosmos 773 Rocket 4.0 12:44:17 64° N 12:45:02 78° ENE 12:50:17 10° SSE
NOSS 3-2 (A) 4.1 12:43:27 36° NNW 12:47:12 86° ENE 12:55:51 10° SSE
Nadezhda 1 Rocket 3.9 12:45:40 22° N 12:49:58 79° W 12:56:14 10° S
Lacrosse 5 3.0 12:49:40 15° S 12:53:32 41° SE 12:58:16 10° NE
Cosmos 1603 4.4 12:50:54 21° N 12:54:32 51° ENE 13:00:00 10° SE
ALOS 2.7 12:50:53 10° N 13:00:21 - SSW 12:54:21 49° N
Lacrosse 4 Rocket 3.8 12:55:21 12° N 12:58:06 21° NE 13:01:24 10° ESE
FENGYUN 3A 3.5 12:55:01 10° N 13:00:25 74° WNW 13:05:47 10° SSW
USA 238 DEB 3.8 12:58:32 31° NW 13:02:28 88° WSW 13:10:03 10° SSE
USA 238 3.8 12:58:36 31° NNW 13:02:33 89° WSW 13:10:09 10° SSE
Cosmos 1943 3.8 13:00:26 16° N 13:04:51 55° ENE 13:10:26 10° SE
CZ-4B R/B 3.1 13:03:05 10° SSE 13:04:31 25° SSE 13:04:31 25° SSE
Cosmos 1461 4.2 13:05:30 23° N 13:07:57 41° NE 13:12:13 10° SE
Cosmos 1151 Rocket 4.2 13:04:30 10° N 13:08:34 41° E 13:12:36 10° SSE
Cosmos 489 Rocket 4.4 13:04:01 17° NNW 13:09:06 87° ENE 13:15:27 10° SSE
Cosmos 1633 2.7 13:09:39 10° S 13:13:09 69° E 13:16:40 10° NNE
OAO 2 Rocket 4.3 13:12:00 26° SW 13:14:14 41° SSE 13:19:03 10° E
CZ-4B R/B 3.7 13:10:04 10° NNE 13:14:32 60° E 13:18:53 10° S
ADEOS 3.5 13:09:47 10° N 13:14:56 60° WNW 13:20:03 10° SSW
Milstar 3 Cent rocket 4.3 13:10:23 20° SW 13:15:44 46° SSE 13:30:03 10° ESE
Atlas Centaur 2 3.9 13:13:26 11° SW 13:17:55 23° SSE 13:21:54 10° ESE
SAR-Lupe-4 3.9 13:15:12 10° SSE 13:18:44 65° ENE 13:20:48 23° N
Cosmos 1777 Rocket 4.3 13:20:18 40° WNW 13:20:18 40° WNW 13:25:09 10° N
Cosmos 2227 4.2 13:16:47 22° SW 13:20:21 54° WNW 13:25:53 10° NNE
TIMED 4.5 13:21:44 45° NW 13:22:48 61° WSW 13:27:05 10° S
Okean 3 Rocket 3.4 13:19:45 10° SSW 13:24:06 76° W 13:28:31 10° N
SJ 16-02 1.3 13:22:05 10° SSW 13:26:29 90° WSW 13:30:57 10° NNE
Cosmos 1745 Rocket 4.5 13:21:07 10° SW 13:26:45 35° WNW 13:32:28 10° N
Cosmos 1766 Rocket 3.4 13:23:38 10° SSW 13:28:05 74° W 13:32:34 10° N
PSLV R/B 4.4 13:25:10 10° SSE 13:29:16 62° ENE 13:33:22 10° N
H-2A R/B 3.9 13:28:11 10° NNE 13:31:59 46° E 13:35:42 10° S
FALCON 9 DEB 4.1 13:29:48 15° SSW 13:32:11 42° SE 13:35:15 10° ENE
Cosmos 1184 Rocket 2.6 13:29:05 10° SSW 13:32:21 78° W 13:35:38 10° N
USA 276 4.3 13:33:43 15° SSW 13:33:43 15° SSW 13:34:55 10° S
COSMO-SKYMED 1 2.4 13:29:38 10° S 13:33:58 83° WSW 13:38:20 10° NNW
CZ-4C R/B 2.5 13:30:10 10° SSW 13:34:47 58° ESE 13:40:13 10° NE
Cosmos 1538 Rocket 4.0 13:31:31 17° NNW 13:35:31 62° WSW 13:40:42 10° S
SAR-Lupe-1 3.9 13:32:16 10° S 13:35:50 78° W 13:38:25 18° NNW
ASTRO E2 4.2 13:35:42 19° SW 13:37:31 26° S 13:40:52 10° SE
ERS-2 2.7 13:34:12 10° SSW 13:37:27 34° WSW 13:37:27 34° WSW
Cosmos 1408 Rocket 3.8 13:33:14 10° S 13:37:41 75° E 13:42:08 10° N
SL-16 R/B 4.0 13:45:08 12° WSW 13:45:08 12° WSW 13:46:13 10° SW
Cosmos 158 Rocket 4.3 13:39:45 10° NNW 13:44:38 64° ENE 13:49:34 10° SSE
OAO 3 Rocket 4.3 13:42:38 20° WSW 13:44:59 31° SSW 13:49:09 10° SE
Cosmos 2181 Rocket 3.9 13:39:08 10° N 13:45:21 78° W 13:51:28 10° S
SJ-12 4.2 13:42:49 10° N 13:46:40 43° WNW 13:50:29 10° SW
BREEZE M DEB (TANK) 3.7 13:36:07 10° SW 13:48:26 68° SE 13:51:56 10° ENE
ATLAS 3B R/B 3.8 13:42:45 10° NNW 13:49:18 42° NE 13:56:05 10° ESE
Meteor PRIRODA 3.7 13:46:59 10° N 13:50:39 54° WNW 13:54:16 10° SSW
Cosmos 1844 Rocket 3.5 13:46:50 10° S 13:52:18 55° ESE 13:57:50 10° NNE
Cosmos 1709 Rocket 4.4 13:46:32 10° SW 13:52:24 39° WNW 13:58:21 10° N
Meteor 1-26 Rocket 4.2 13:49:06 10° NNW 13:54:53 70° W 14:00:27 10° S
Cosmos 1689 Rocket 2.1 13:52:14 10° S 13:54:59 48° W 13:56:51 18° NNW
Cosmos 1898 Rocket 3.7 13:51:56 10° SSW 13:57:13 81° ESE 14:02:34 10° NNE
GPS 2-04 Rocket1 3.5 13:55:32 13° WSW 13:58:46 43° S 14:02:18 10° E
Cosmos 1933 4.1 13:58:40 11° NNW 14:02:14 32° W 14:05:52 10° SSW
ATLAS CENTAUR R/B 3.7 14:00:04 10° N 14:02:39 17° NE 14:05:18 10° E
Cosmos 1606 4.5 14:04:50 14° W 14:04:50 14° W 14:06:21 10° WSW
ASTRO F (AKARI) 4.3 14:02:21 10° N 14:05:22 51° WNW 14:08:23 10° SSW
PSLV R/B 3.6 14:01:44 10° N 14:05:38 82° WNW 14:09:24 10° SSW
NOSS 3-4 (A) 3.9 14:00:24 10° WSW 14:05:51 38° NW 14:11:39 10° NNE
NOSS 3-4 (C) 3.9 14:00:30 10° WSW 14:05:58 38° NW 14:11:47 10° NNE
Cosmos 2084 4.1 14:03:55 15° NW 14:07:15 42° WSW 14:11:28 10° S
Cosmos 2228 Rocket 4.3 14:03:26 10° N 14:07:42 44° E 14:11:54 10° SSE
NOSS 3-2 (C) 4.4 14:00:42 10° NW 14:08:13 51° WSW 14:16:31 10° S
H-2A R/B 2.5 14:07:04 10° NNE 14:10:55 75° ESE 14:14:43 10° S
Envisat 3.1 14:05:53 10° NNE 14:11:00 85° ESE 14:16:04 10° SSW
RESURS DK-1 2.3 14:09:20 10° SSW 14:13:29 83° WNW 14:17:40 10° NNE
SL-4 R/B 3.9 14:13:18 11° NW 14:15:08 14° NNW 14:17:13 10° NNE
Meteor 2-3 Rocket 4.3 14:10:52 10° SW 14:15:59 34° WNW 14:21:11 10° N
Cosmos 2263 Rocket 3.4 14:12:23 10° WSW 14:16:33 21° NW 14:20:46 10° N
FALCON 9 DEB 3.1 14:13:59 10° WSW 14:17:06 51° NW 14:20:15 10° NE
Cosmos 1782 3.1 14:13:39 10° NNW 14:17:31 46° W 14:21:22 10° SSW
Aureole 2 Rocket 4.0 14:17:12 10° SSE 14:19:30 29° ESE 14:21:47 10° NE
Cosmos 1937 Rocket 3.5 14:14:58 10° SSW 14:20:06 87° WNW 14:25:18 10° NNE
USA 234 3.3 14:13:58 10° NE 14:20:23 61° NW 14:26:48 10° WSW
Cosmos 2074 Rocket 4.0 14:14:21 10° SSW 14:20:29 61° W 14:26:38 10° N
BREEZE-M DEB (TANK) 3.2 14:17:50 10° WSW 14:21:08 69° NNW 14:31:27 10° ENE
CENTAUR R/B 3.7 14:15:25 10° NW 14:23:14 43° WSW 14:31:26 10° S
ATLAS 2AS CENTAUR R/B 3.4 14:18:01 10° WSW 14:25:32 44° NW 14:33:01 10° NNE
MOS 1-B 4.4 14:19:46 10° NNE 14:25:37 84° WNW 14:31:25 10° SSW
COSMOS 2455 3.9 14:21:19 10° S 14:27:06 51° ESE 14:32:56 10° NE
Cosmos 1515 Rocket 3.8 14:23:04 10° NNW 14:27:21 48° W 14:31:38 10° SSW
Meteor 1-4 Rocket 3.7 14:24:47 10° NW 14:27:30 22° W 14:30:12 10° SW
Cosmos 405 Rocket 2.5 14:25:09 10° SSW 14:28:49 77° W 14:32:32 10° N
Genesis I 3.1 14:25:20 10° SW 14:29:06 68° WNW 14:32:56 10° NNE
CZ-4B R/B 3.5 14:27:31 10° NNE 14:32:52 74° ESE 14:38:17 10° S
Cosmos 2184 Rocket 4.2 14:27:45 10° SSW 14:33:48 50° W 14:39:59 10° N
CZ-2C R/B 3.3 14:29:46 10° SSE 14:35:13 62° ENE 14:40:35 10° N
Lacrosse 5 2.6 14:31:57 10° WSW 14:36:33 34° NW 14:41:10 10° NNE
Lacrosse 4 Rocket 2.1 14:32:51 10° NW 14:36:53 38° WSW 14:40:59 10° S
AQUARIUS 4.3 14:33:50 10° NNE 14:38:21 85° ESE 14:42:50 10° SSW
Cosmos 1295 Rocket 4.5 14:34:25 10° S 14:40:31 83° W 14:46:38 10° N
Okean O Rocket 1.7 14:36:05 10° NNE 14:40:33 89° ESE 14:45:00 10° SSW
Cosmos 1812 2.7 14:36:47 10° NNW 14:40:37 72° W 14:44:24 10° S
SL-24 DEB 4.3 14:36:56 10° S 14:41:40 71° W 14:46:26 10° N
